User: anonymous   Login
Location: Buffign�court
(47.8126°N, 6.0176°E)
Time: 19:51:41
(UTC+00:00)
Language:

Lacrosse 5 rocket - Orbit

View from above orbital plane
View from above orbital plane
View from above satellite
View from above satellite

Ground track
Ground track

The orbit data is extracted from the following two-line orbital elements,

1 28647U 05016B   21270.38222983  .00000460  00000-0  44517-4 0  9993
2 28647  56.9971 140.8318 0118320 266.1019  92.6486 15.06578706130319
Epoch (UTC): 27 September 2021 09:10:24
Eccentricity: 0.0118320
inclination: 56.9971°
perigee height: 465 km
apogee height: 628 km
right ascension of ascending node: 140.8318°
argument of perigee: 266.1019°
revolutions per day: 15.06578706
mean anomaly at epoch: 92.6486°
orbit number at epoch: 13031

The dashed part of the orbit path shows where the satellite is in the earth's shadow,  

DLR